QPF
0.01 0.01 0.02 0.01 0.01 0.01 0.00 0.00 0.00 0.00 0.00 0.00 0.00 0.00 0.00 0.01 0.01 0.01 0.01 0.01 0.01 0.02 0.03 0.03 0.03 0.04 0.05 0.05 0.05 0.05 0.05 0.04 0.03 0.03 0.03 0.04 0.05 0.05 0.05 0.04 0.04 0.03 0.03
0.00 0.01 0.01 0.01 0.01 0.00 0.00 0.00 0.00 0.00 0.00 0.00 0.00 0.00 0.00 0.00 0.00 0.00 0.01 0.01 0.02 0.03 0.02 0.03 0.03 0.03 0.04 0.04 0.04 0.04 0.04 0.03 0.04 0.05 0.07 0.07 0.08 0.05 0.03 0.02 0.02 0.03 0.03
0.00 0.00 0.01 0.01 0.00 0.00 0.00 0.00 0.00 0.00 0.00 0.00 0.00 0.00 0.00 0.00 0.00 0.01 0.01 0.02 0.03 0.03 0.02 0.03 0.02 0.02 0.03 0.03 0.04 0.04 0.04 0.06 0.07 0.09 0.08 0.05 0.06 0.06 0.05 0.03 0.03 0.03 0.03
0.00 0.00 0.00 0.01 0.00 0.00 0.00 0.00 0.00 0.00 0.00 0.00 0.00 0.00 0.00 0.00 0.01 0.01 0.01 0.02 0.03 0.03 0.02 0.01 0.02 0.02 0.03 0.03 0.04 0.06 0.07 0.06 0.06 0.05 0.02 0.01 0.03 0.06 0.06 0.05 0.04 0.03 0.03
0.00 0.00 0.00 0.00 0.00 0.00 0.00 0.00 0.00 0.00 0.00 0.00 0.00 0.00 0.01 0.01 0.01 0.01 0.01 0.02 0.03 0.03 0.03 0.02 0.01 0.02 0.02 0.02 0.04 0.07 0.08 0.06 0.05 0.02 0.01 0.01 0.02 0.06 0.05 0.04 0.04 0.04 0.04
0.00 0.00 0.00 0.00 0.00 0.00 0.00 0.00 0.00 0.00 0.00 0.00 0.00 0.00 0.01 0.01 0.01 0.01 0.01 0.01 0.02 0.02 0.03 0.03 0.01 0.02 0.03 0.03 0.05 0.08 0.08 0.03 0.02 0.00 0.00 0.01 0.01 0.04 0.04 0.04 0.03 0.04 0.04
0.00 0.00 0.00 0.00 0.00 0.00 0.00 0.00 0.00 0.00 0.00 0.00 0.00 0.00 0.01 0.01 0.01 0.01 0.01 0.01 0.02 0.02 0.02 0.02 0.02 0.02 0.03 0.04 0.05 0.08 0.08 0.03 0.00 0.00 0.00 0.01 0.01 0.03 0.03 0.03 0.03 0.03 0.04
0.00 0.00 0.00 0.01 0.01 0.00 0.00 0.00 0.00 0.00 0.00 0.00 0.00 0.00 0.01 0.01 0.01 0.01 0.01 0.02 0.02 0.02 0.02 0.03 0.04 0.04 0.03 0.04 0.05 0.06 0.06 0.03 0.00 0.00 0.00 0.00 0.01 0.02 0.02 0.03 0.02 0.02 0.03
0.02 0.01 0.01 0.01 0.01 0.01 0.01 0.00 0.00 0.00 0.00 0.01 0.01 0.01 0.01 0.01 0.01 0.01 0.01 0.02 0.03 0.03 0.02 0.02 0.02 0.03 0.03 0.03 0.05 0.06 0.07 0.05 0.01 0.00 0.00 0.01 0.02 0.01 0.02 0.01 0.01 0.01 0.01
0.03 0.03 0.02 0.02 0.01 0.01 0.01 0.01 0.01 0.01 0.01 0.01 0.01 0.01 0.01 0.01 0.01 0.01 0.01 0.02 0.02 0.02 0.01 0.01 0.01 0.02 0.03 0.04 0.06 0.09 0.10 0.04 0.01 0.00 0.00 0.01 0.02 0.02 0.01 0.01 0.01 0.01 0.01
0.07 0.04 0.03 0.03 0.02 0.01 0.01 0.01 0.01 0.01 0.01 0.01 0.01 0.02 0.01 0.01 0.00 0.00 0.00 0.01 0.01 0.01 0.02 0.01 0.02 0.02 0.03 0.04 0.06 0.09 0.07 0.01 0.01 0.00 0.00 0.01 0.02 0.02 0.01 0.01 0.01 0.00 0.01
0.08 0.04 0.03 0.02 0.03 0.01 0.01 0.01 0.01 0.01 0.01 0.00 0.00 0.01 0.00 0.00 0.00 0.00 0.00 0.01 0.02 0.01 0.02 0.02 0.03 0.03 0.02 0.02 0.04 0.04 0.03 0.01 0.01 0.01 0.01 0.01 0.02 0.02 0.02 0.02 0.01 0.01 0.01
0.05 0.04 0.02 0.02 0.03 0.01 0.01 0.01 0.00 0.00 0.00 0.00 0.00 0.00 0.00 0.00 0.00 0.00 0.00 0.02 0.01 0.01 0.01 0.02 0.02 0.01 0.01 0.02 0.02 0.02 0.02 0.01 0.01 0.00 0.01 0.02 0.02 0.02 0.03 0.02 0.02 0.02 0.02
0.02 0.03 0.03 0.03 0.03 0.02 0.01 0.00 0.00 0.00 0.00 0.00 0.00 0.00 0.00 0.00 0.00 0.00 0.00 0.01 0.01 0.01 0.02 0.01 0.01 0.01 0.02 0.02 0.02 0.02 0.02 0.02 0.01 0.01 0.02 0.04 0.03 0.03 0.04 0.03 0.02 0.01 0.02
0.04 0.04 0.03 0.02 0.03 0.02 0.01 0.00 0.00 0.00 0.00 0.01 0.00 0.00 0.00 0.00 0.00 0.00 0.01 0.01 0.01 0.01 0.02 0.01 0.02 0.02 0.02 0.02 0.02 0.01 0.02 0.02 0.02 0.01 0.02 0.05 0.05 0.04 0.06 0.05 0.02 0.02 0.01
0.11 0.10 0.05 0.03 0.04 0.03 0.01 0.01 0.00 0.00 0.00 0.00 0.00 0.00 0.00 0.00 0.00 0.01 0.01 0.01 0.02 0.02 0.02 0.01 0.03 0.03 0.02 0.02 0.03 0.03 0.03 0.03 0.02 0.01 0.01 0.03 0.05 0.04 0.04 0.06 0.05 0.03 0.02
0.13 0.14 0.08 0.03 0.04 0.05 0.03 0.01 0.01 0.00 0.00 0.00 0.00 0.01 0.01 0.01 0.01 0.01 0.01 0.02 0.02 0.03 0.03 0.02 0.03 0.02 0.03 0.03 0.03 0.04 0.04 0.03 0.02 0.01 0.01 0.02 0.03 0.04 0.04 0.06 0.08 0.07 0.05
0.13 0.14 0.11 0.05 0.05 0.07 0.06 0.03 0.03 0.02 0.02 0.02 0.02 0.03 0.02 0.03 0.02 0.02 0.03 0.03 0.03 0.03 0.03 0.03 0.03 0.03 0.05 0.03 0.04 0.04 0.04 0.03 0.02 0.01 0.01 0.01 0.02 0.02 0.03 0.05 0.06 0.07 0.07
0.16 0.16 0.13 0.09 0.08 0.08 0.10 0.09 0.09 0.08 0.08 0.06 0.06 0.06 0.03 0.02 0.03 0.04 0.04 0.04 0.04 0.04 0.04 0.03 0.03 0.04 0.04 0.04 0.04 0.05 0.04 0.04 0.03 0.02 0.02 0.01 0.01 0.01 0.01 0.03 0.06 0.06 0.07
0.18 0.21 0.14 0.09 0.11 0.11 0.11 0.11 0.10 0.10 0.10 0.10 0.09 0.10 0.07 0.05 0.04 0.03 0.03 0.03 0.03 0.03 0.03 0.03 0.02 0.03 0.04 0.05 0.04 0.04 0.03 0.04 0.03 0.02 0.02 0.02 0.01 0.01 0.01 0.01 0.01 0.02 0.05
0.12 0.18 0.16 0.12 0.13 0.13 0.11 0.10 0.09 0.09 0.10 0.11 0.11 0.11 0.10 0.06 0.05 0.04 0.03 0.01 0.01 0.01 0.03 0.03 0.02 0.02 0.03 0.02 0.02 0.02 0.02 0.02 0.02 0.02 0.01 0.01 0.01 0.01 0.01 0.01 0.01 0.00 0.01
0.08 0.13 0.16 0.14 0.15 0.16 0.15 0.14 0.12 0.13 0.14 0.14 0.13 0.13 0.12 0.11 0.08 0.05 0.03 0.03 0.03 0.02 0.02 0.03 0.03 0.02 0.02 0.01 0.01 0.01 0.01 0.02 0.02 0.01 0.01 0.01 0.00 0.00 0.00 0.01 0.01 0.00 0.00
0.07 0.11 0.14 0.14 0.19 0.24 0.23 0.23 0.22 0.22 0.20 0.17 0.11 0.11 0.12 0.13 0.12 0.11 0.07 0.06 0.05 0.04 0.02 0.02 0.02 0.01 0.01 0.01 0.01 0.01 0.01 0.01 0.01 0.01 0.00 0.00 0.00 0.01 0.01 0.00 0.00 0.00 0.00
0.06 0.10 0.13 0.16 0.22 0.26 0.29 0.31 0.29 0.21 0.15 0.11 0.08 0.11 0.15 0.15 0.11 0.08 0.08 0.06 0.05 0.04 0.03 0.02 0.03 0.02 0.02 0.01 0.01 0.00 0.00 0.01 0.01 0.00 0.00 0.00 0.00 0.00 0.00 0.00 0.00 0.00 0.00
0.07 0.11 0.15 0.18 0.19 0.24 0.31 0.33 0.30 0.25 0.18 0.14 0.11 0.12 0.13 0.12 0.09 0.06 0.05 0.04 0.04 0.03 0.02 0.02 0.03 0.02 0.02 0.02 0.01 0.01 0.00 0.00 0.00 0.00 0.00 0.00 0.00 0.00 0.00 0.01 0.01 0.00 0.01
0.10 0.14 0.14 0.13 0.15 0.21 0.24 0.25 0.24 0.21 0.17 0.15 0.14 0.12 0.10 0.11 0.09 0.06 0.06 0.04 0.03 0.03 0.02 0.02 0.03 0.02 0.02 0.02 0.02 0.01 0.00 0.00 0.00 0.00 0.00 0.00 0.00 0.00 0.01 0.01 0.01 0.01 0.01
MSLP
1011.85 1011.61 1011.52 1011.59 1011.78 1012.04 1012.31 1012.54 1012.70 1012.78 1012.82 1012.85 1012.91 1013.03 1013.22 1013.47 1013.74 1014.01 1014.24 1014.42 1014.54 1014.62 1014.70 1014.79 1014.92 1015.10 1015.33 1015.57 1015.81 1016.01 1016.18 1016.30 1016.38 1016.45 1016.52 1016.62 1016.74 1016.89 1017.05 1017.22 1017.38 1017.53 1017.67
1011.44 1011.32 1011.35 1011.54 1011.83 1012.17 1012.49 1012.75 1012.91 1013.00 1013.04 1013.08 1013.17 1013.31 1013.53 1013.81 1014.10 1014.37 1014.59 1014.75 1014.85 1014.91 1014.97 1015.05 1015.17 1015.34 1015.56 1015.79 1016.02 1016.22 1016.39 1016.51 1016.62 1016.72 1016.82 1016.95 1017.10 1017.27 1017.45 1017.62 1017.79 1017.94 1018.08
1010.98 1010.97 1011.12 1011.42 1011.81 1012.23 1012.62 1012.92 1013.12 1013.23 1013.29 1013.35 1013.45 1013.63 1013.87 1014.15 1014.44 1014.70 1014.90 1015.03 1015.11 1015.15 1015.19 1015.26 1015.38 1015.55 1015.75 1015.98 1016.20 1016.40 1016.58 1016.73 1016.87 1017.01 1017.16 1017.33 1017.51 1017.69 1017.87 1018.04 1018.19 1018.33 1018.47
1010.56 1010.65 1010.90 1011.30 1011.79 1012.29 1012.73 1013.08 1013.31 1013.45 1013.54 1013.62 1013.75 1013.94 1014.19 1014.47 1014.74 1014.98 1015.16 1015.27 1015.32 1015.36 1015.39 1015.47 1015.59 1015.75 1015.96 1016.18 1016.40 1016.61 1016.80 1016.99 1017.17 1017.36 1017.55 1017.75 1017.95 1018.14 1018.31 1018.45 1018.59 1018.71 1018.84
1010.27 1010.44 1010.77 1011.25 1011.81 1012.36 1012.85 1013.23 1013.49 1013.66 1013.77 1013.87 1014.02 1014.22 1014.46 1014.74 1015.00 1015.22 1015.38 1015.47 1015.53 1015.57 1015.62 1015.71 1015.84 1016.02 1016.22 1016.44 1016.66 1016.88 1017.09 1017.30 1017.52 1017.75 1017.98 1018.21 1018.42 1018.59 1018.74 1018.85 1018.96 1019.06 1019.18
1010.20 1010.42 1010.80 1011.32 1011.91 1012.49 1013.00 1013.39 1013.66 1013.83 1013.95 1014.08 1014.23 1014.44 1014.69 1014.96 1015.21 1015.42 1015.57 1015.67 1015.74 1015.80 1015.89 1016.00 1016.16 1016.35 1016.56 1016.78 1016.99 1017.21 1017.43 1017.66 1017.90 1018.16 1018.42 1018.66 1018.87 1019.03 1019.14 1019.23 1019.30 1019.38 1019.49
1010.33 1010.58 1010.99 1011.52 1012.11 1012.67 1013.16 1013.53 1013.78 1013.95 1014.08 1014.22 1014.40 1014.62 1014.88 1015.14 1015.39 1015.60 1015.76 1015.88 1015.97 1016.07 1016.19 1016.35 1016.53 1016.74 1016.95 1017.16 1017.37 1017.57 1017.79 1018.03 1018.28 1018.56 1018.83 1019.08 1019.28 1019.42 1019.50 1019.55 1019.60 1019.66 1019.77
1010.65 1010.92 1011.32 1011.83 1012.38 1012.90 1013.33 1013.65 1013.87 1014.03 1014.16 1014.32 1014.52 1014.76 1015.04 1015.32 1015.58 1015.80 1015.97 1016.10 1016.23 1016.36 1016.52 1016.71 1016.92 1017.14 1017.36 1017.56 1017.75 1017.93 1018.14 1018.36 1018.62 1018.90 1019.17 1019.42 1019.61 1019.74 1019.81 1019.84 1019.87 1019.92 1020.03
1011.06 1011.33 1011.73 1012.20 1012.69 1013.13 1013.49 1013.75 1013.93 1014.07 1014.21 1014.39 1014.63 1014.91 1015.22 1015.52 1015.79 1016.02 1016.20 1016.35 1016.49 1016.65 1016.84 1017.05 1017.28 1017.51 1017.72 1017.91 1018.08 1018.25 1018.43 1018.64 1018.89 1019.16 1019.43 1019.68 1019.88 1020.01 1020.07 1020.10 1020.12 1020.17 1020.28
1011.46 1011.75 1012.14 1012.56 1012.98 1013.35 1013.63 1013.83 1013.97 1014.10 1014.26 1014.47 1014.75 1015.08 1015.43 1015.76 1016.05 1016.28 1016.46 1016.61 1016.75 1016.91 1017.11 1017.33 1017.56 1017.80 1018.01 1018.19 1018.34 1018.49 1018.65 1018.85 1019.08 1019.35 1019.62 1019.87 1020.08 1020.22 1020.30 1020.34 1020.36 1020.42 1020.52
1011.78 1012.09 1012.47 1012.86 1013.23 1013.52 1013.74 1013.89 1014.01 1014.14 1014.33 1014.59 1014.92 1015.30 1015.69 1016.05 1016.35 1016.58 1016.74 1016.87 1016.99 1017.14 1017.32 1017.53 1017.77 1018.00 1018.21 1018.39 1018.54 1018.68 1018.83 1019.01 1019.23 1019.49 1019.76 1020.02 1020.24 1020.40 1020.51 1020.57 1020.61 1020.67 1020.78
1011.94 1012.30 1012.68 1013.06 1013.39 1013.64 1013.81 1013.94 1014.05 1014.21 1014.43 1014.75 1015.13 1015.56 1015.99 1016.37 1016.67 1016.88 1017.02 1017.12 1017.21 1017.32 1017.48 1017.68 1017.91 1018.14 1018.36 1018.54 1018.70 1018.84 1018.99 1019.16 1019.37 1019.62 1019.88 1020.14 1020.37 1020.56 1020.70 1020.79 1020.86 1020.94 1021.05
1011.93 1012.34 1012.75 1013.13 1013.45 1013.68 1013.85 1013.98 1014.11 1014.30 1014.57 1014.93 1015.37 1015.84 1016.29 1016.68 1016.98 1017.17 1017.28 1017.35 1017.40 1017.48 1017.61 1017.79 1018.01 1018.25 1018.48 1018.69 1018.86 1019.02 1019.17 1019.34 1019.53 1019.76 1020.01 1020.26 1020.50 1020.70 1020.87 1020.99 1021.09 1021.19 1021.30
1011.77 1012.22 1012.66 1013.07 1013.40 1013.66 1013.85 1014.01 1014.18 1014.41 1014.72 1015.12 1015.59 1016.08 1016.54 1016.93 1017.23 1017.41 1017.50 1017.54 1017.57 1017.63 1017.74 1017.91 1018.13 1018.38 1018.63 1018.86 1019.06 1019.23 1019.39 1019.55 1019.72 1019.92 1020.14 1020.37 1020.60 1020.81 1021.00 1021.15 1021.29 1021.40 1021.52
1011.47 1011.96 1012.44 1012.88 1013.26 1013.56 1013.80 1014.01 1014.24 1014.51 1014.85 1015.28 1015.75 1016.24 1016.70 1017.09 1017.38 1017.56 1017.65 1017.69 1017.72 1017.78 1017.89 1018.06 1018.29 1018.56 1018.83 1019.08 1019.31 1019.49 1019.66 1019.80 1019.95 1020.11 1020.29 1020.48 1020.68 1020.88 1021.07 1021.24 1021.40 1021.55 1021.68
1011.10 1011.60 1012.11 1012.59 1013.02 1013.39 1013.71 1013.99 1014.27 1014.58 1014.94 1015.36 1015.82 1016.29 1016.73 1017.10 1017.39 1017.59 1017.71 1017.78 1017.84 1017.93 1018.06 1018.25 1018.49 1018.77 1019.06 1019.34 1019.58 1019.78 1019.94 1020.07 1020.18 1020.29 1020.41 1020.55 1020.70 1020.88 1021.06 1021.24 1021.42 1021.59 1021.74
1010.68 1011.18 1011.70 1012.22 1012.71 1013.16 1013.56 1013.92 1014.26 1014.61 1014.97 1015.37 1015.79 1016.21 1016.62 1016.97 1017.27 1017.50 1017.67 1017.80 1017.92 1018.06 1018.23 1018.45 1018.72 1019.01 1019.31 1019.60 1019.85 1020.06 1020.21 1020.32 1020.39 1020.45 1020.51 1020.59 1020.68 1020.81 1020.97 1021.15 1021.34 1021.53 1021.70
1010.25 1010.72 1011.24 1011.79 1012.34 1012.87 1013.35 1013.80 1014.20 1014.57 1014.93 1015.29 1015.66 1016.02 1016.38 1016.72 1017.03 1017.30 1017.53 1017.75 1017.95 1018.16 1018.38 1018.64 1018.92 1019.23 1019.54 1019.82 1020.08 1020.28 1020.43 1020.52 1020.57 1020.58 1020.58 1020.59 1020.63 1020.70 1020.82 1020.98 1021.17 1021.37 1021.55
1009.83 1010.24 1010.74 1011.31 1011.92 1012.52 1013.10 1013.62 1014.09 1014.49 1014.84 1015.15 1015.45 1015.75 1016.06 1016.37 1016.69 1017.01 1017.32 1017.62 1017.91 1018.20 1018.49 1018.78 1019.09 1019.39 1019.70 1019.98 1020.24 1020.44 1020.59 1020.67 1020.70 1020.67 1020.63 1020.58 1020.55 1020.57 1020.64 1020.77 1020.94 1021.13 1021.33
1009.41 1009.76 1010.23 1010.81 1011.45 1012.13 1012.79 1013.39 1013.91 1014.34 1014.68 1014.96 1015.20 1015.44 1015.69 1015.98 1016.31 1016.67 1017.06 1017.44 1017.82 1018.18 1018.52 1018.85 1019.17 1019.48 1019.78 1020.06 1020.32 1020.53 1020.68 1020.77 1020.79 1020.75 1020.68 1020.58 1020.50 1020.46 1020.48 1020.55 1020.68 1020.86 1021.04
1008.99 1009.28 1009.71 1010.29 1010.96 1011.69 1012.42 1013.10 1013.68 1014.14 1014.48 1014.73 1014.93 1015.11 1015.32 1015.59 1015.93 1016.32 1016.76 1017.21 1017.66 1018.09 1018.48 1018.83 1019.16 1019.47 1019.77 1020.05 1020.32 1020.55 1020.72 1020.84 1020.87 1020.84 1020.75 1020.63 1020.50 1020.40 1020.35 1020.36 1020.44 1020.57 1020.72
1008.57 1008.81 1009.20 1009.76 1010.44 1011.21 1011.99 1012.73 1013.36 1013.86 1014.21 1014.46 1014.63 1014.78 1014.96 1015.21 1015.55 1015.97 1016.44 1016.95 1017.45 1017.92 1018.34 1018.72 1019.06 1019.37 1019.67 1019.97 1020.25 1020.51 1020.73 1020.88 1020.95 1020.93 1020.85 1020.71 1020.54 1020.39 1020.27 1020.21 1020.22 1020.28 1020.39
1008.15 1008.35 1008.70 1009.23 1009.91 1010.69 1011.50 1012.27 1012.94 1013.48 1013.86 1014.12 1014.29 1014.43 1014.61 1014.85 1015.18 1015.61 1016.11 1016.64 1017.17 1017.66 1018.11 1018.51 1018.86 1019.18 1019.50 1019.82 1020.13 1020.43 1020.69 1020.89 1021.01 1021.02 1020.95 1020.81 1020.62 1020.42 1020.23 1020.10 1020.03 1020.02 1020.06
1007.74 1007.91 1008.24 1008.73 1009.37 1010.13 1010.93 1011.72 1012.41 1012.98 1013.40 1013.68 1013.88 1014.04 1014.22 1014.47 1014.81 1015.24 1015.74 1016.28 1016.82 1017.33 1017.79 1018.20 1018.56 1018.91 1019.25 1019.60 1019.95 1020.30 1020.61 1020.86 1021.02 1021.08 1021.03 1020.89 1020.68 1020.45 1020.21 1020.00 1019.85 1019.76 1019.73
1007.36 1007.53 1007.82 1008.26 1008.84 1009.54 1010.31 1011.07 1011.77 1012.35 1012.81 1013.13 1013.37 1013.57 1013.78 1014.05 1014.39 1014.82 1015.32 1015.86 1016.40 1016.91 1017.37 1017.80 1018.18 1018.56 1018.93 1019.31 1019.71 1020.09 1020.45 1020.75 1020.96 1021.05 1021.03 1020.90 1020.69 1020.43 1020.16 1019.89 1019.67 1019.51 1019.42
1007.05 1007.21 1007.46 1007.84 1008.34 1008.96 1009.65 1010.36 1011.03 1011.61 1012.09 1012.46 1012.75 1012.99 1013.25 1013.54 1013.91 1014.34 1014.84 1015.37 1015.90 1016.41 1016.88 1017.32 1017.73 1018.13 1018.54 1018.96 1019.39 1019.81 1020.20 1020.53 1020.77 1020.90 1020.91 1020.80 1020.61 1020.34 1020.05 1019.75 1019.49 1019.27 1019.11
Thickness
5782 5783 5781 5779 5778 5777 5776 5775 5774 5773 5773 5772 5771 5770 5768 5767 5766 5764 5763 5762 5761 5759 5758 5757 5756 5755 5754 5753 5752 5750 5749 5747 5746 5745 5743 5742 5741 5740 5739 5737 5736 5735 5733
5788 5784 5782 5779 5777 5776 5774 5773 5772 5771 5771 5770 5769 5768 5767 5765 5764 5763 5762 5760 5759 5758 5757 5755 5754 5753 5752 5750 5749 5748 5747 5745 5744 5743 5741 5740 5739 5738 5736 5735 5734 5733 5731
5790 5785 5782 5779 5777 5775 5773 5772 5771 5770 5769 5768 5767 5766 5765 5764 5763 5761 5760 5759 5757 5756 5755 5753 5752 5751 5750 5748 5747 5746 5744 5743 5742 5740 5739 5738 5737 5736 5734 5733 5732 5731 5729
5790 5785 5782 5779 5776 5774 5772 5770 5769 5768 5767 5766 5765 5764 5763 5762 5761 5760 5759 5757 5756 5755 5753 5751 5750 5749 5747 5746 5745 5743 5742 5741 5740 5738 5737 5736 5735 5733 5732 5731 5730 5728 5727
5788 5784 5781 5778 5775 5773 5771 5769 5768 5767 5766 5765 5764 5763 5762 5761 5760 5758 5757 5756 5754 5753 5751 5750 5748 5747 5745 5744 5743 5741 5740 5739 5738 5736 5735 5734 5733 5731 5730 5729 5728 5726 5725
5786 5783 5780 5777 5775 5772 5770 5768 5767 5766 5765 5763 5762 5761 5760 5759 5758 5757 5755 5754 5753 5751 5749 5748 5746 5745 5743 5742 5740 5739 5738 5736 5735 5734 5732 5731 5730 5729 5728 5727 5726 5724 5723
5784 5781 5779 5776 5773 5771 5769 5767 5765 5764 5763 5762 5761 5760 5759 5758 5756 5755 5754 5752 5751 5749 5747 5746 5744 5743 5741 5740 5739 5738 5736 5734 5733 5731 5730 5729 5728 5727 5726 5725 5723 5722 5721
5783 5780 5777 5774 5772 5769 5767 5766 5764 5763 5762 5761 5760 5759 5757 5756 5755 5754 5752 5751 5749 5747 5745 5744 5742 5741 5740 5738 5737 5736 5735 5733 5731 5729 5728 5727 5726 5725 5724 5723 5721 5720 5719
5781 5778 5775 5772 5770 5767 5765 5764 5763 5762 5761 5760 5759 5757 5756 5754 5753 5752 5751 5749 5747 5746 5744 5742 5740 5739 5738 5737 5736 5734 5733 5731 5729 5727 5726 5725 5724 5723 5722 5721 5720 5719 5717
5778 5775 5773 5771 5768 5766 5764 5762 5761 5760 5759 5758 5757 5756 5754 5753 5752 5750 5749 5748 5746 5745 5743 5741 5739 5738 5737 5736 5734 5733 5731 5729 5727 5726 5724 5723 5722 5721 5720 5719 5718 5717 5716
5773 5772 5771 5769 5766 5764 5762 5761 5759 5759 5758 5757 5756 5755 5753 5752 5750 5749 5747 5746 5745 5743 5742 5740 5738 5737 5736 5734 5733 5731 5729 5727 5726 5724 5723 5721 5721 5720 5719 5718 5716 5715 5714
5771 5770 5769 5767 5765 5762 5761 5759 5758 5757 5756 5755 5754 5753 5751 5750 5748 5747 5746 5745 5743 5742 5741 5739 5737 5736 5734 5733 5731 5730 5728 5727 5725 5723 5722 5720 5719 5718 5717 5716 5715 5714 5713
5772 5769 5767 5765 5763 5761 5760 5758 5756 5755 5754 5753 5752 5751 5749 5748 5747 5745 5744 5743 5742 5741 5739 5738 5736 5735 5733 5731 5730 5729 5727 5726 5724 5722 5721 5720 5718 5717 5716 5715 5714 5712 5711
5770 5767 5765 5764 5761 5760 5758 5756 5755 5753 5752 5751 5750 5749 5747 5746 5745 5743 5742 5742 5740 5739 5738 5737 5735 5734 5732 5730 5729 5728 5726 5725 5723 5722 5720 5719 5718 5717 5715 5714 5713 5712 5710
5769 5767 5764 5762 5760 5758 5756 5755 5753 5752 5750 5749 5748 5746 5745 5744 5743 5742 5741 5740 5739 5738 5737 5735 5734 5733 5731 5730 5728 5727 5725 5724 5722 5721 5720 5718 5717 5716 5715 5714 5712 5711 5710
5770 5766 5764 5761 5759 5757 5755 5754 5752 5750 5749 5747 5745 5745 5744 5743 5742 5741 5740 5739 5738 5736 5735 5734 5733 5732 5731 5729 5727 5726 5725 5724 5722 5721 5719 5718 5717 5716 5715 5713 5712 5711 5710
5771 5767 5763 5760 5758 5756 5754 5752 5750 5748 5747 5745 5744 5743 5742 5741 5740 5739 5738 5738 5737 5735 5734 5733 5732 5731 5730 5729 5727 5726 5724 5723 5722 5720 5719 5718 5717 5716 5715 5713 5712 5711 5710
5771 5766 5763 5762 5757 5755 5753 5751 5749 5747 5745 5743 5742 5742 5741 5740 5739 5738 5737 5737 5736 5735 5733 5732 5731 5729 5728 5727 5726 5725 5724 5723 5722 5720 5719 5718 5717 5716 5715 5714 5712 5711 5710
5771 5767 5763 5761 5758 5755 5752 5749 5747 5745 5743 5741 5740 5740 5739 5739 5738 5737 5736 5735 5735 5734 5732 5732 5730 5729 5726 5725 5725 5724 5723 5722 5721 5721 5720 5719 5718 5717 5715 5714 5713 5712 5711
5771 5767 5763 5759 5756 5753 5749 5746 5744 5742 5741 5739 5739 5738 5738 5738 5737 5736 5735 5735 5734 5732 5731 5731 5729 5727 5726 5724 5724 5723 5722 5722 5721 5721 5720 5719 5718 5717 5716 5715 5714 5713 5712
5769 5765 5762 5757 5754 5750 5746 5744 5741 5739 5739 5738 5738 5738 5737 5737 5736 5735 5735 5734 5733 5732 5731 5730 5728 5726 5723 5723 5720 5718 5719 5721 5721 5721 5720 5720 5719 5718 5717 5716 5715 5714 5714
5769 5765 5761 5758 5754 5750 5747 5745 5742 5739 5737 5737 5737 5736 5736 5735 5735 5735 5734 5733 5732 5731 5729 5729 5728 5725 5723 5722 5719 5714 5712 5714 5719 5722 5721 5721 5720 5719 5718 5717 5716 5716 5715
5769 5766 5763 5758 5754 5751 5747 5743 5740 5736 5735 5733 5734 5735 5736 5735 5735 5735 5734 5733 5732 5730 5729 5729 5728 5726 5722 5721 5721 5717 5711 5709 5713 5719 5721 5722 5721 5721 5720 5719 5718 5718 5717
5770 5767 5763 5758 5754 5750 5746 5742 5738 5736 5733 5734 5735 5735 5735 5735 5735 5734 5734 5733 5731 5730 5729 5729 5728 5728 5725 5720 5720 5720 5720 5718 5713 5712 5718 5721 5722 5722 5722 5721 5721 5720 5719
5769 5766 5762 5757 5753 5750 5746 5743 5739 5736 5735 5734 5733 5732 5733 5734 5734 5734 5733 5732 5731 5730 5729 5729 5728 5727 5726 5723 5721 5720 5718 5717 5717 5713 5712 5716 5719 5722 5723 5723 5722 5722 5721
5768 5765 5760 5754 5751 5749 5745 5741 5739 5737 5734 5732 5731 5730 5730 5732 5732 5733 5733 5732 5731 5730 5730 5729 5728 5727 5726 5725 5723 5722 5721 5718 5716 5714 5712 5713 5715 5720 5723 5723 5723 5723 5722